Other Public Products
Issued by NWS Grand Forks, ND

Home | Current Version | Previous Version | Text Only | Print | Product List | Glossary Off
Versions: 1 2 3 4 5 6 7 8 9 10 11 12 13 14 15 16 17 18 19 20 21 22 23 24 25 26 27 28 29 30 31 32 33 34 35 36 37 38 39 40 41 42 43 44 45 46 47 48 49 50

010
FPUS83 KFGF 110210
OPUFGF
PRAIRIE TO PINES WEATHER ROUNDUP
NATIONAL WEATHER SERVICE EASTERN NORTH DAKOTA/GRAND FORKS ND
800 PM CST SAT DEC 10 2016

 **SATELLITE DATA USED TO AUGMENT SKY COVER AT AUTOMATED STATIONS**
 *****  WEATHER ACROSS EASTERN NORTH DAKOTA  *****

CITY           SKY/WX    TMP DP  RH WIND       PRES   REMARKS
GRAND FORKS    CLOUDY    -5 -10  79 NE5       30.26F WCI -16
GRAND FORKS AF FLURRIES  -8 -11  84 E6        30.25S WCI -21
GRAND CITY NWS NOT AVBL
BUXTON         NOT AVBL
DEVILS LAKE    CLOUDY    -5  -9  83 E12       30.15F WCI -23
FARGO          CLOUDY     3  -5  69 E8        30.20F WCI -10
WAHPETON ARPT  CLOUDY     7   1  78 E10       30.18F WCI  -8
$$

 *****  WEATHER ACROSS CENTRAL AND WESTERN NORTH DAKOTA  *****

CITY           SKY/WX    TMP DP  RH WIND       PRES   REMARKS
JAMESTOWN      LGT SNOW  -1  -6  79 E9        30.11R WCI -16
BISMARCK       FLURRIES  -1  -5  82 E13       30.02F WCI -19
MINOT          CLOUDY    -4 -10  75 E14       30.05F WCI -24
MINOT AFB      CLOUDY    -6 -11  80 E15       30.06F WCI -27
GARRISON         N/A     -2  -7  79 E12       30.00F WCI -20
WILLISTON      LGT SNOW   3  -2  79 E8        29.94F WCI -10
DICKINSON      LGT SNOW  -4  -8  83 E14       29.83F VSB 1   WCI -24
HETTINGER      CLOUDY    -2  -5  87 E10       29.84F WCI -19
$$

 *****  OTHER OBSERVATIONS NORTHEAST NORTH DAKOTA  *****

CITY           SKY/WX    TMP DP  RH WIND       PRES   REMARKS
WALHALLA         N/A    -11 -11 100 CALM      30.26F
LANGDON        FAIR     -11 -17  77 E6        30.15F WCI -25
CAVALIER         N/A     -8 -11  84 CALM      30.27S
GRAFTON        FAIR      -9 -13  84 CALM      30.29F
CANDO          CLOUDY    -4  -9  77 SE12      30.17S WCI -22
FORT TOTTEN      N/A     -5  -9  81 SE7       29.95S WCI -19
ROLLA          CLOUDY    -9 -13  84 CALM      30.11F
RUGBY            N/A     -2  -8  78 E12       30.10F WCI -20
 ***** THE ABOVE OBSERVATIONS ARE NON NWS ARE NOT QUALITY
        CONTROLLED AND MAY MIS-REPORT RAIN FOR SNOW...
$$

 *****  OTHER OBSERVATIONS SOUTHEAST NORTH DAKOTA *****

CITY           SKY/WX    TMP DP  RH WIND       PRES   REMARKS
COOPERSTOWN    CLOUDY    -2  -8  78 E14       30.15S HAZE    WCI -21
VALLEY CITY    FLURRIES   0  -4  85 E10       30.15S WCI -17
OAKES          NOT AVBL
GWINNER        CLOUDY     3   0  85 E16       30.11F WCI -16
SHEYENNE NWR     N/A      2  -5  73 E9        29.95S WCI -13
BUFFALO        NOT AVBL
WYNDMERE       NOT AVBL
 ***** THE ABOVE OBSERVATIONS ARE NON NWS ARE NOT QUALITY
       CONTROLLED AND MAY MIS-REPORT RAIN FOR SNOW...
$$

  *****  WEATHER ACROSS NORTHERN MINNESOTA  *****

CITY           SKY/WX    TMP DP  RH WIND       PRES   REMARKS
FLAG ISLAND    NOT AVBL
WARROAD        CLOUDY   -11 -17  77 CALM      30.26S
ROSEAU         CLOUDY    -9 -15  77 CALM      30.26F
HALLOCK        CLOUDY   -11 -17  77 CALM      30.27F
THF RVR FALLS  CLOUDY    -7 -11  83 NE8       30.24F WCI -23
HALSTAD          N/A     -1  -6  78 NE8         N/A  WCI -15
FOSSTON        CLOUDY    -2  -8  78 E5        30.20F WCI -12
BAUDETTE       CLOUDY    -4  -8  83 NE3       30.24F
WASKISH        CLOUDY    -6  -9  84 CALM      30.23F
CROOKSTON      CLOUDY    -4  -8  84 E7        30.25F WCI -18
$$
  *****  WEATHER ACROSS CENTRAL AND WEST MINNESOTA  *****

CITY           SKY/WX    TMP DP  RH WIND       PRES   REMARKS
BEMIDJI        CLOUDY     1  -5  77 E8        30.19F WCI -14
PARK RAPIDS    CLOUDY     4  -4  69 E7        30.17F WCI  -8
WADENA         FLURRIES   3  -2  78 E6        30.16F WCI  -8
DETROIT LAKES  CLOUDY     3   0  85 SE7       30.17S WCI  -9
MOORHEAD       MIX PCPN   1  -4  78 E8        30.20F WCI -12
FERGUS FALLS   FLURRIES   5   0  78 E6        30.22F WCI  -6
ELBOW LAKE     LGT SNOW   6   3  86 E9        30.16F WCI  -8
MORRIS MN      LGT SNOW   9   5  85 E14       30.14S WCI  -8
STAPLES        NOT AVBL
WHEATON        LGT SNOW   9   7  92 E8        30.18F WCI  -4
$$
  *****  WEATHER ELSEWHERE ACROSS MINNESOTA  *****

CITY           SKY/WX    TMP DP  RH WIND       PRES   REMARKS
DULUTH         CLOUDY     1  -4  79 NE5       30.21F WCI  -9
INTRNTL FALLS  CLOUDY   -14 -19  79 CALM      30.25F
ELY            CLOUDY    -9 -13  84 CALM      30.24S
CLOQUET        CLOUDY     0  -6  78 CALM      30.21F
BRAINERD       CLOUDY     6   1  80 E3        30.21S
HIBBING        CLOUDY   -10 -14  82 CALM      30.22F
ALEXANDRIA     LGT SNOW   7   3  84 E10       30.15F FOG     WCI  -8
SAINT CLOUD    LGT SNOW  10   5  80 E7        30.19F WCI  -1
MINNEAPOLIS    LGT SNOW  12   7  80 E10       30.21F WCI  -1
$$

  *****  WEATHER ACROSS SOUTH DAKOTA  *****

CITY           SKY/WX    TMP DP  RH WIND       PRES   REMARKS
SIOUX FALLS    FLURRIES  18  16  92 E13       30.00F WCI   5
BROOKINGS      LGT SNOW   9   6  88 E14       30.01F FOG     WCI  -7
WATERTOWN      LGT SNOW   6   2  83 E12G17    30.02R VSB 3/4 WCI  -9
HURON          FLURRIES  13  10  88 E15       29.98F WCI  -3
SISSETON         N/A      5   1  83 E7        30.14S WCI  -7
ABERDEEN       LGT SNOW   6  -1  73 NE15      30.06F WCI -12
MITCHELL       CLOUDY    19  16  88 SE15      29.97F WCI   5
PIERRE         CLOUDY    11   8  88 E17       29.87F WCI  -6
MOBRIDGE       LGT SNOW   5  -2  72 MISG      29.92F
RAPID CITY     CLOUDY     5   2  87 E5        29.74R WCI  -4
$$

  *****  SOME WEATHER IN NEARBY STATES *****

CITY           SKY/WX    TMP DP  RH WIND       PRES   REMARKS
GLASGOW MT     CLOUDY     2  -2  83 E15       29.84F WCI -17
GREAT FALLS MT CLOUDY    -1  -5  82 CALM      29.75S
CHEYENNE WY    CLOUDY    43  29  57 W28G37    29.70F
SCOTTSBLUFF NE CLOUDY    25  19  78 SE5       29.65F WCI  19
OMAHA NE       CLOUDY    32  18  56 SE13      30.00F WCI  22
DES MOINES IA  CLOUDY    26  18  71 SE10      30.10F WCI  16
DAVENPORT IA   CLOUDY    22  19  89 SE16      30.25F WCI   8
CHICAGO IL     LGT SNOW  22  20  92 SE10      30.34F VSB 3/4 WCI  11
EAU CLAIRE WI  LGT SNOW  12   9  87 E6        30.25F FOG     WCI   3
LA CROSSE WI   LGT SNOW  17  12  80 SE7       30.27F WCI   8
$$

  *****  SOME NATIONAL WEATHER *****

CITY           SKY/WX    TMP DP  RH WIND       PRES   REMARKS
LA GUARDIA NY  PTCLDY    34  21  59 NW12      30.44S
RALEIGH NC     PTCLDY    29  16  58 CALM      30.50F
ATLANTA GA     PTCLDY    41  18  39 SE6       30.41F
NEW ORLEANS LA CLEAR     44  31  60 SE6       30.39S
OKLAHOMA CITY  CLOUDY    40  33  76 S21G30    29.97F
ALBUQUERQUE NM CLOUDY    41  29  62 SE8       30.05R
SALT LAKE CITY RAIN      39  36  89 N12       29.90R
LOS ANGELES CA CLOUDY    60  58  92 W9        30.10R FOG
BOISE ID       FOG       31  30  96 SW5       29.90S VSB 1/4
SEATTLE WA     CLOUDY    41  38  89 S14       29.84S
$$

*** WEATHER ACROSS MANITOBA...SASKATCHEWAN AND ONTARIO ***
                ***ONTARIO***

CITY           SKY/WX    TMP DP  RH WIND       PRES   REMARKS
GERALDTON      FLURRIES   1  -2  85 NW2       30.25F
THUNDER BAY    PTCLDY     0  -4  85 W3        30.33F
SIOUX LOOKOUT  PTCLDY   -17 -22  76 CALM      30.25F
TORONTO        PTCLDY    21  16  79 SW10      30.34F WCI  10
BIG TROUT LK   FLURRIES -11 -15  84 W5        30.27S WCI -23
PICKLE LAKE    FLURRIES  -8 -11  84 W5        30.24F WCI -19
DRYDEN         CLEAR     -6  -9  84 SE2       30.24F
KENORA         PTCLDY    -6  -9  84 NE2       30.23F
$$
                *** MANITOBA***

CITY           SKY/WX    TMP DP  RH WIND       PRES   REMARKS
BRANDON        CLEAR    -17 -22  76 NE3       30.18F
DAUPHIN        CLEAR    -22 -27  76 W6        30.22F WCI -38
ISLAND LAKE    NOT AVBL
PILOT MOUND      N/A    -13 -17  84 E8          N/A  WCI -30
THE PAS        CLOUDY    -9 -17  70 VRB2      30.19F
THOMPSON       MOCLDY    -9 -15  77 SW7       30.16F WCI -24
WINNIPEG       CLEAR     -9 -13  84 S3        30.30F
LYNN LAKE      CLOUDY   -15 -18  84 W6        30.04F WCI -29
CHURCHILL      CRYSTALS  -9 -15  77 SW10      30.07F WCI -28
GILLAM         FLURRIES  -2  -8  78 SW14G21   30.15F WCI -21
$$
                ***SASKATCHEWAN***

CITY           SKY/WX    TMP DP  RH WIND       PRES   REMARKS
ESTEVAN        FLURRIES -11 -17  77 E15       30.02F WCI -34
KINDERSLEY     CLOUDY     1  -2  85 E12       29.92S WCI -15
LLOYDMINSTER   FLURRIES  -4  -8  84 SE9       29.97F WCI -20
PRINCE ALBERT  MOCLDY   -13 -18  77 CALM      30.12S
REGINA         CLOUDY    -8 -18  59 E14       30.01F WCI -28
YORKTON        CLEAR    -15 -18  84 SE5       30.12F WCC1F1C2F2C3F3C4F4C5F5C6F6C7F7C8F8C9F9CaFaCbFbCcFcCdFdCe!



USA.gov is the U.S. government's official web portal to all federal, state and local government web resources and services.